Weather Roundup
Issued by NWS Chicago, IL

Home | Current Version | Previous Version | Text Only | Print | Product List | Glossary On
Versions: 1 2 3 4 5 6 7 8 9 10 11 12 13 14 15 16 17 18 19 20 21 22 23 24 25 26 27 28 29 30 31 32 33 34 35 36 37 38 39 40 41 42 43 44 45 46 47 48 49 50
000
NZUS59 KLOT 241609
HRRLOT

CHICAGO AREA WEATHER ROUNDUP
NATIONAL WEATHER SERVICE CHICAGO/ROMEOVILLE IL
1100 AM CDT WED AUG 24 2016

NOTE: "FAIR" INDICATES FEW OR NO CLOUDS BELOW 12,000 FEET WITH NO
SIGNIFICANT WEATHER AND/OR OBSTRUCTIONS TO VISIBILITY.

* THESE STATIONS ARE NOT UNDER NWS QUALITY CONTROL. THEY ALSO MAY NOT
  REPORT WEATHER SUCH AS PRECIPITATION OR FOG.

ILZ005-006-012>014-019>023-241700-
NORTHEAST ILLINOIS

CITY           SKY/WX    TMP DP  RH WIND       PRES   REMARKS
OHARE          LGT RAIN  73  71  93 S13       29.97S FOG
MIDWAY         RAIN      74  71  91 SW15      30.00R
AURORA         CLOUDY    74  72  93 SE16      29.96F
LANSING*       CLOUDY    73  70  89 SW10G16   30.01S
JOLIET*        RAIN      74  73  98 SE6       29.99F
WAUKEGAN       LGT RAIN  74  71  91 S9        29.95R
DUPAGE AIRPORT LGT RAIN  73  70  90 S14       29.94F
WHEELING       LGT RAIN  73  71  93 S17       29.97F
KANKAKEE*      CLOUDY    72  71  97 S3        30.02R
MORRIS*        RAIN      72  71  96 SE6       29.97F
LEWIS AIRPORT* RAIN      72  70  93 SE7       29.99F
NORTHERLY ISL    N/A     73  69  87 S15         N/A
$$

WIZ051-052-058>065-066-070>072-241700-
SOUTHEAST WISCONSIN

CITY           SKY/WX    TMP DP  RH WIND       PRES   REMARKS
MILWAUKEE      CLOUDY    78  69  73 SW13G20   29.92S HX  80
KENOSHA*       CLOUDY    74  70  87 S13       29.96R
RACINE*        CLOUDY    75  69  81 SW8       29.96S
BURLINGTON     CLOUDY    72  68  88 S5        29.94F
WAUKESHA       PTSUNNY   72  66  83 S10G18    29.95S
$$

INZ001>003-010>013-019-020-241700-
NORTHWEST INDIANA

CITY           SKY/WX    TMP DP  RH WIND       PRES   REMARKS
GARY*          CLOUDY    75  73  94 S6        30.01F
MICHIGAN CITY* NOT AVBL
RENSSELAER*    NOT AVBL
VALPARAISO     LGT RAIN  72  70  93 S10       30.03F
$$

LMZ740>746-241700-
SOUTHERN LAKE MICHIGAN

STATION/POSITION TIME  SKY/WX   TEMP WIND        PRES    VSBY
                                AIR  DIR/SP/G
                 (UTC)          (F)  (DEG/KT/KT) (MB)    (MI)
HARRISON CRIB    1500            71  170/ 12/ 12   N/A
BURNHAM HARBOR   1600            73  190/ 10/ 15   N/A
CALUMET HARBOR   1500            72  170/ 11/ 14 1015.3F
BURNS HARBOR     1505            72  180/ 11/ 17 1016.9F
MICHIGAN CITY    1500            72  150/ 10/ 15   N/A
$$

ABBREVIATIONS USED IN REMARKS
   TC - TEMPERATURE IN CELSIUS
  WCI - WIND CHILL INDEX
   HX - HEAT INDEX
  VSB - VISIBILITY
$$




USA.gov is the U.S. government's official web portal to all federal, state and local government web resources and services.